Weather in Novyy Kuvak

Russia / Samara Oblast     54°27′22″N   51°52′42″E
temp.,
°C
wind,
m/s
gust,
m/s
humid.,
%
clouds,
%
prec.,
mm/h
press.,
hPa
HPBL,
m
5 march, fri
fri501:00−3w61287100 0.8 998511
04:00−5w3793100 0.8 999168
07:00−6wsw2295100 0.0 100038
10:00−5nw2395100 0.6 1001223
13:00−4nnw3594100 1.3 1001430
16:00−5nw4590100 1.5 1004458
19:00−11wnw239326 0.0 100721
22:00−14w229313 0.0 101020
6 march, sat
sat601:00−14wsw22960 0.0 101121
04:00−14sw339747 0.1 101230
07:00−15ssw349763 0.0 101247
10:00−10wsw589581 0.2 1013353
13:00−9w4793100 0.1 1014461
16:00−9wnw5689100 0.3 1014757
19:00−14w3496100 0.1 101449
22:00−16wnw1297100 0.1 101520
7 march, sun
sun701:00−18w019894 0.0 101320
04:00−18ssw129577 0.0 101320
07:00−20wsw11990 0.0 101220
10:00−14wsw239229 0.0 1012204
13:00−11w349199 0.1 1011374
16:00−11w359299 0.1 1010402
19:00−16ssw349740 0.0 100927
22:00−14sse379751 0.1 1009172
8 march, mon
mon801:00−13sse41196100 0.1 1006304
04:00−11s71594100 0.6 1002579
07:00−8s61495100 1.3 999779
10:00−9wsw61090100 1.9 1001471
13:00−7sw7128514 0.0 1003578
16:00−6ssw611838 0.0 1004765
19:00−9s5138976 0.0 1002411
22:00−5sse10179388 1.1 997848
9 march, tue
tue901:00−5wsw91586100 1.2 993652
04:00−9wsw111890100 1.8 996870
07:00−10w101691100 0.4 1001615
10:00−11wsw71293100 0.6 1006543
13:00−8wsw71090100 0.1 1009763
16:00−8wsw6889100 0.3 1010806
19:00−12sw3796100 0.1 1011139
22:00−14sw2297100 0.1 101321